Location: *
(58.7167°N, 26.1833°E)
Time: 19:10:21
(UTC+00:00)

USA 32 - Pass Details

Date: 25 August 2019
Orbit: 777 x 783 km, 85.0° (Epoch: 21 September)

Event Time Altitude Azimuth Distance (km) Brightness Sun altitude
Rises 19:06:26 0° 351° (N) 3,280 8.2 -10.7°
Reaches altitude 10° 19:08:48 10° 352° (N) 2,347 7.3 -10.9°
Maximum altitude 19:14:05 85° 81° (E) 791 4.0 -11.4°
Drops below altitude 10° 19:19:19 10° 171° (S) 2,327 6.0 -11.9°
Enters shadow 19:19:20 10° 171° (S) 2,333 6.0 -11.9°
